This is the latest recevied weather packets stored in our database for station/object DC4XK-10. If no packets are shown the sender has not sent any weather packets the latest 10 day(s).
| Time | Temp. | Humidity | Pressure | Rain* | Wind** | Luminosity | Snow |
|---|---|---|---|---|---|---|---|
| 1777962530 | 10° C | 88% | 1010.2 hPa | 0 mm | 0 m/s | - | - |
| 1777961931 | 9.44° C | 89% | 1010.1 hPa | 0 mm | 1.34 m/s, 22° | - | - |
| 1777961332 | 9.44° C | 90% | 1010.1 hPa | 0 mm | 0.45 m/s, 312° | - | - |
| 1777960730 | 9.44° C | 91% | 1010.3 hPa | 0 mm | 0 m/s | - | - |
| 1777960131 | 9.44° C | 91% | 1010.3 hPa | 0 mm | 0.45 m/s, 331° | - | - |
| 1777959533 | 8.89° C | 93% | 1010.3 hPa | 0 mm | 0 m/s | - | - |
| 1777958930 | 8.89° C | 94% | 1010.2 hPa | 0 mm | 0 m/s | - | - |
| 1777958331 | 8.89° C | 95% | 1010.1 hPa | 0 mm | 0 m/s | - | - |
| 1777957734 | 8.89° C | 95% | 1010.2 hPa | 0 mm | 0 m/s | - | - |
| 1777957131 | 8.89° C | 95% | 1010.2 hPa | 0 mm | 0 m/s | - | - |
| 1777956530 | 8.33° C | 95% | 1010.2 hPa | 0 mm | 0.89 m/s, 2° | - | - |
| 1777955933 | 8.33° C | 95% | 1010 hPa | 0 mm | 0.45 m/s, 30° | - | - |
| 1777955331 | 8.33° C | 96% | 1010 hPa | 0 mm | 0.45 m/s, 257° | - | - |
| 1777954730 | 8.33° C | 96% | 1010.2 hPa | 0 mm | 0 m/s | - | - |
| 1777954131 | 8.33° C | 96% | 1010.2 hPa | 0 mm | 0 m/s | - | - |
| 1777953531 | 8.33° C | 95% | 1010 hPa | 0 mm | 0 m/s | - | - |
| 1777952930 | 8.33° C | 95% | 1010.4 hPa | 0 mm | 0.45 m/s, 330° | - | - |
| 1777952331 | 8.33° C | 95% | 1010.2 hPa | 0 mm | 1.34 m/s, 336° | - | - |
| 1777951731 | 8.33° C | 95% | 1010.3 hPa | 0 mm | 0.45 m/s, 325° | - | - |
| 1777951130 | 8.33° C | 94% | 1010.3 hPa | 0 mm | 0 m/s | - | - |
| 1777950531 | 8.33° C | 94% | 1010.4 hPa | 0 mm | 0 m/s | - | - |
| 1777949931 | 8.33° C | 94% | 1010.4 hPa | 0 mm | 0 m/s | - | - |
| 1777949332 | 8.33° C | 93% | 1010.5 hPa | 0 mm | 0.89 m/s, 336° | - | - |
| 1777948131 | 8.33° C | 92% | 1010.5 hPa | 0 mm | 0 m/s | - | - |
| 1777947533 | 8.33° C | 91% | 1010.3 hPa | 0 mm | 0.89 m/s, 331° | - | - |
* Rain latest hour (hover to see other rain measurements)
** Current wind speed in m/s (hover to see current wind gust speed)